Weather History for New Castle, PA

Change the Weather History Date:

Sunday, February 17, 2013

  Actual Average Record
Temperature  
Mean Temperature 16 °F -  
Max Temperature 21 °F 39 °F 66 °F (1954)
Min Temperature 10 °F 17 °F -14 °F (1979)
Degree Days  
Heating Degree Days 48    
Moisture  
Dew Point 10 °F    
Average Humidity 77    
Maximum Humidity 93    
Minimum Humidity 50    
Precipitation  
Precipitation 0.00 in - - ()
Sea Level Pressure  
Sea Level Pressure 30.07 in    
Wind  
Wind Speed 6 mph (West)    
Max Wind Speed 17 mph    
Max Gust Speed 25 mph    
Visibility 6 miles    
Events Snow    
Averages and records for this station are not official NWS values.
T = Trace of Precipitation, MM = Missing Value Source: NWS Daily Summary

Daily Weather History Graph

Daily Weather History Graph

Search for Another Location

Airport:

Trip Planner

Search our weather history database for the weather conditions in past years. The results will help you decide how hot, cold, wet, or windy it might be!

Date:

Astronomy

Feb. 17, 2013 Rise Set
Actual Time 7:13 AM EST 5:58 PM EST
Civil Twilight 6:44 AM EST 6:26 PM EST
Nautical Twilight 6:12 AM EST 6:59 PM EST
Astronomical Twilight 5:41 AM EST 7:30 PM EST
Moon 11:01 AM EST (2/17) 12:56 AM EST (2/17)
Length of Visible Light 11h 41m
Length of Day
10h 45m
Waxing Crescent, 49% of the Moon is Illuminated
Feb 17
Waxing Crescent
Feb 17
First Quarter
Feb 25
Full
Mar 4
Last Quarter
Mar 11
New

Hourly Weather History & Observations

Time (EST) Temp. Windchill Dew Point Humidity Pressure Visibility Wind Dir Wind Speed Gust Speed Precip Events Conditions
12:56 AM 18.1 °F - 14.0 °F 84% 30.03 in 6.0 mi Calm Calm - 0.00 in Snow Light Snow
1:03 AM 17.6 °F - 15.8 °F 93% 29.93 in 5.0 mi Calm Calm - 0.00 in Snow Light Snow
1:18 AM 17.6 °F - 15.8 °F 93% 29.93 in 3.0 mi Calm Calm - 0.00 in Snow Light Snow
1:56 AM 18.1 °F - 15.1 °F 88% 30.03 in 5.0 mi Calm Calm - 0.00 in Snow Light Snow
2:27 AM 17.6 °F 10.7 °F 14.0 °F 86% 29.94 in 10.0 mi West 4.6 mph - 0.00 in Snow Light Snow
2:37 AM 17.6 °F 10.7 °F 14.0 °F 86% 29.94 in 10.0 mi West 4.6 mph - 0.00 in   Overcast
2:56 AM 17.1 °F 8.7 °F 14.0 °F 88% 30.04 in 10.0 mi West 5.8 mph - 0.00 in   Overcast
3:56 AM 16.2 °F 6.5 °F 13.1 °F 88% 30.04 in 10.0 mi West 6.9 mph - 0.00 in   Mostly Cloudy
4:08 AM 17.6 °F 5.7 °F 12.2 °F 79% 29.94 in 4.0 mi West 10.4 mph - 0.00 in Snow Light Snow
4:13 AM 17.6 °F 7.3 °F 12.2 °F 79% 29.94 in 2.5 mi West 8.1 mph - 0.00 in Snow Light Snow
4:22 AM 17.6 °F 7.3 °F 12.2 °F 79% 29.94 in 1.8 mi WSW 8.1 mph - 0.00 in Snow Light Snow
4:33 AM 15.8 °F 6.1 °F 12.2 °F 86% 29.94 in 2.5 mi WSW 6.9 mph - 0.00 in Snow Light Snow
4:48 AM 15.8 °F 4.2 °F 12.2 °F 86% 29.95 in 3.0 mi WSW 9.2 mph - 0.00 in Snow Light Snow
4:56 AM 16.2 °F 6.5 °F 13.1 °F 88% 30.05 in 3.0 mi WSW 6.9 mph - 0.00 in Snow Light Snow
4:59 AM 15.8 °F 4.2 °F 12.2 °F 86% 29.95 in 2.5 mi WSW 9.2 mph - 0.00 in Snow Light Snow
5:05 AM 15.8 °F 5.1 °F 12.2 °F 86% 29.95 in 3.0 mi WSW 8.1 mph - 0.00 in Snow Light Snow
5:42 AM 14.0 °F 2.9 °F 10.4 °F 86% 29.95 in 2.5 mi WSW 8.1 mph - 0.00 in Snow Light Snow
5:47 AM 15.8 °F 3.4 °F 10.4 °F 79% 29.95 in 1.2 mi WSW 10.4 mph - 0.00 in Snow Light Snow
5:49 AM 15.8 °F 4.2 °F 12.2 °F 86% 29.95 in 1.0 mi West 9.2 mph - 0.00 in Snow Light Snow
5:56 AM 15.1 °F 4.2 °F 12.0 °F 88% 30.05 in 0.8 mi West 8.1 mph - 0.00 in Snow Light Snow
6:01 AM 15.8 °F 5.1 °F 12.2 °F 86% 29.95 in 1.2 mi WSW 8.1 mph - 0.00 in Snow Light Snow
6:05 AM 15.8 °F 3.4 °F 12.2 °F 86% 29.95 in 2.0 mi West 10.4 mph - 0.00 in Snow Light Snow
6:17 AM 15.8 °F 5.1 °F 12.2 °F 86% 29.96 in 1.2 mi West 8.1 mph - 0.00 in Snow Light Snow
6:33 AM 15.8 °F 5.1 °F 12.2 °F 86% 29.97 in 1.8 mi West 8.1 mph - 0.00 in Snow Light Snow
6:42 AM 15.8 °F 6.1 °F 12.2 °F 86% 29.97 in 1.0 mi West 6.9 mph - 0.00 in Snow Light Snow
6:49 AM 15.8 °F 3.4 °F 12.2 °F 86% 29.97 in 1.5 mi WNW 10.4 mph - 0.00 in Snow Light Snow
6:56 AM 16.2 °F 3.9 °F 13.1 °F 88% 30.08 in 6.0 mi NW 10.4 mph - 0.00 in Snow Light Snow
7:01 AM 17.6 °F 6.4 °F 12.2 °F 79% 29.98 in 10.0 mi NW 9.2 mph - 0.00 in Snow Light Snow
7:41 AM 15.8 °F 7.2 °F 12.2 °F 86% 29.99 in 2.5 mi WNW 5.8 mph - 0.00 in Snow Light Snow
7:49 AM 15.8 °F 3.4 °F 12.2 °F 86% 30.00 in 9.0 mi NW 10.4 mph - 0.00 in Snow Light Snow
7:56 AM 16.2 °F 6.5 °F 11.1 °F 81% 30.10 in 10.0 mi WNW 6.9 mph - 0.00 in   Scattered Clouds
8:56 AM 17.1 °F 5.0 °F 12.0 °F 81% 30.13 in 10.0 mi NW 10.4 mph - 0.00 in   Mostly Cloudy
9:46 AM 17.6 °F 5.0 °F 12.2 °F 79% 30.04 in 1.8 mi NW 11.5 mph - 0.00 in Snow Light Snow
9:56 AM 18.1 °F 8.9 °F 12.0 °F 77% 30.15 in 3.0 mi Variable 6.9 mph - 0.00 in Snow Light Snow
10:56 AM 18.1 °F 5.6 °F 9.1 °F 68% 30.16 in 10.0 mi WNW 11.5 mph - 0.00 in Snow Light Snow
11:56 AM 19.0 °F 5.6 °F 9.1 °F 65% 30.17 in 10.0 mi WNW 13.8 mph - 0.00 in Snow Light Snow
12:17 PM 19.4 °F 6.6 °F 8.6 °F 63% 30.07 in 4.0 mi WNW 12.7 mph - 0.00 in Snow Light Snow
12:25 PM 19.4 °F 8.6 °F 8.6 °F 63% 30.07 in 7.0 mi WNW 9.2 mph - 0.00 in Snow Light Snow
12:38 PM 19.4 °F 7.2 °F 8.6 °F 63% 30.07 in 2.5 mi WNW 11.5 mph - 0.00 in Snow Light Snow
12:56 PM 19.0 °F 5.0 °F 8.1 °F 62% 30.17 in 4.0 mi WNW 15.0 mph 25.3 mph 0.00 in Snow Light Snow
1:56 PM 21.0 °F 7.6 °F 5.0 °F 50% 30.18 in 10.0 mi West 15.0 mph - 0.00 in   Partly Cloudy
2:56 PM 19.0 °F 7.5 °F 7.2 °F 60% 30.19 in 10.0 mi West 10.4 mph - N/A   Mostly Cloudy
3:56 PM 20.1 °F 5.4 °F 4.1 °F 50% 30.20 in 10.0 mi West 17.3 mph - N/A   Mostly Cloudy
4:56 PM 18.1 °F 3.9 °F 3.0 °F 52% 30.22 in 10.0 mi WNW 15.0 mph - N/A   Scattered Clouds
5:56 PM 16.2 °F 5.5 °F 2.1 °F 54% 30.26 in 10.0 mi WNW 8.1 mph - N/A   Mostly Cloudy
6:56 PM 16.2 °F 6.5 °F 3.0 °F 56% 30.28 in 10.0 mi WNW 6.9 mph - N/A   Mostly Cloudy
7:56 PM 15.1 °F 9.4 °F 5.0 °F 64% 30.29 in 10.0 mi WNW 3.5 mph - N/A   Mostly Cloudy
8:56 PM 14.0 °F - 5.0 °F 67% 30.31 in 10.0 mi Calm Calm - N/A   Mostly Cloudy
9:56 PM 15.1 °F - 7.2 °F 71% 30.32 in 10.0 mi Calm Calm - N/A   Overcast
10:56 PM 12.0 °F - 5.0 °F 73% 30.35 in 10.0 mi Calm Calm - N/A   Clear
11:56 PM 10.0 °F - 5.0 °F 80% 30.35 in 10.0 mi Calm Calm - N/A   Clear